Погода в Быстрецах

Россия / Курская область     51°36′04″N   37°25′52″E
темп.,
°C
ветер,
м/с
пор.,
м/с
влажн.,
%
обл.,
%
осадки,
мм/ч
давл.,
гПа
погр.,
м
4 марта, чт
чт400:00−1з6149226 0.0 1018449
03:00−2з6129329 0.0 1017357
06:00−3зюз6129325 0.0 1015296
09:00−2зюз7138812 0.0 1013437
12:00+1зюз815850 0.0 1011684
15:00+2зюз815890 0.0 1008644
18:00+2зюз615891 0.0 1006510
21:00+1з7139736 0.1 1005665
5 марта, пт
пт500:00+1зюз51298100 0.3 1005462
03:00+1з61097100 0.5 1005469
06:000сз5994100 0.1 1007519
09:00−1зсз588499 0.2 1009749
12:00−1с448793 0.1 1011480
15:000с338094 0.1 1012493
18:00−2с2389100 0.0 1013150
21:00−2с1189100 0.0 101522
6 марта, сб
сб600:00−3с2289100 0.0 1016105
03:00−4с2390100 0.0 1016112
06:00−5с2391100 0.0 1016110
09:00−4сз3489100 0.0 1016241
12:00−3сз578368 0.0 1016581
15:00−4сз697684 0.1 1016913
18:00−5зсз6108086 0.1 1017866
21:00−6сз8138192 0.3 1019762
7 марта, вс
вс700:00−7сз6117772 0.0 1021488
03:00−8зсз488436 0.0 1021322
06:00−7зюз510830 0.0 1020409
09:00−5зюз8136835 0.0 1018843
12:00−2зюз101657100 0.0 10141144
15:000зюз111856100 0.0 10111418
18:00−1зюз101980100 0.3 10081281
21:00−1зюз9178099 0.3 1008986
8 марта, пн
пн800:00−2зюз8168184 0.0 1007790
03:00−1зюз8148791 0.1 1006906
06:00−2зюз81592100 0.2 1004862
09:00−2зсз91292100 0.7 1005974
12:00−3сз91273100 0.1 10081258
15:00−4зсз575381 0.1 1011938
18:00−6сз36690 0.0 1012481
21:00−7сз23720 0.0 1014167